Weather History for Hoquiam, WA

Change the Weather History Date:

Thursday, October 4, 2012

  Actual Average Record
Temperature  
Mean Temperature 56 °F 55 °F  
Max Temperature 73 °F 63 °F 81 °F (1966)
Min Temperature 39 °F 47 °F 34 °F (2009)
Degree Days  
Heating Degree Days 10 10  
Month to date heating degree days 38  
Cooling Degree Days 0 0  
Month to date cooling degree days 0  
Year to date cooling degree days 23  
Growing Degree Days 6 (Base 50)    
Moisture  
Dew Point 34 °F    
Average Humidity 49    
Maximum Humidity 82    
Minimum Humidity 18    
Precipitation  
Precipitation 0.00 in 0.13 in 1.24 in (1990)
Month to date precipitation 0.49  
Year to date precipitation 40.38  
Sea Level Pressure  
Sea Level Pressure 30.24 in    
Wind  
Wind Speed 4 mph (NE)    
Max Wind Speed 12 mph    
Max Gust Speed 20 mph    
Visibility 9 miles    
Events      
T = Trace of Precipitation, MM = Missing Value Source: NWS Daily Summary

Daily Weather History Graph

Daily Weather History Graph

Search for Another Location

Airport:

Trip Planner

Search our weather history database for the weather conditions in past years. The results will help you decide how hot, cold, wet, or windy it might be!

Date:

Astronomy

Oct. 04, 2012 Rise Set
Actual Time 7:19 AM PDT 6:48 PM PDT
Civil Twilight 6:49 AM PDT 7:18 PM PDT
Nautical Twilight 6:13 AM PDT 7:53 PM PDT
Astronomical Twilight 5:38 AM PDT 8:29 PM PDT
Moon 9:10 PM PDT (10/4) 11:59 AM PDT (10/4)
Length of Visible Light 12h 29m
Length of Day
11h 28m
Waning Gibbous, 81% of the Moon is Illuminated
Oct 4
Waning Gibbous
Oct 8
Last Quarter
Oct 15
New
Oct 21
First Quarter
Oct 29
Full

Hourly Weather History & Observations

Time (PDT) Temp. Windchill Dew Point Humidity Pressure Visibility Wind Dir Wind Speed Gust Speed Precip Events Conditions
12:53 AM 48.9 °F - 32.0 °F 52% 30.25 in 10.0 mi Calm Calm - N/A   Clear
1:53 AM 48.0 °F - 33.1 °F 56% 30.25 in 10.0 mi NE 5.8 mph - N/A   Clear
2:53 AM 48.0 °F - 33.1 °F 56% 30.25 in 10.0 mi Calm Calm - N/A   Clear
3:53 AM 46.0 °F - 33.1 °F 61% 30.25 in 10.0 mi Calm Calm - N/A   Clear
4:53 AM 45.0 °F - 33.1 °F 63% 30.25 in 10.0 mi Calm Calm - N/A   Clear
5:53 AM 42.1 °F 39.2 °F 34.0 °F 73% 30.25 in 10.0 mi ENE 4.6 mph - N/A   Clear
6:53 AM 41.0 °F 38.0 °F 34.0 °F 76% 30.25 in 10.0 mi ENE 4.6 mph - N/A   Clear
7:53 AM 39.0 °F - 34.0 °F 82% 30.26 in 10.0 mi Calm Calm - N/A   Clear
8:53 AM 46.0 °F 41.9 °F 37.9 °F 73% 30.26 in 10.0 mi East 8.1 mph - N/A   Clear
9:53 AM 52.0 °F - 39.0 °F 61% 30.26 in 10.0 mi East 10.4 mph - N/A   Clear
10:41 AM 55.4 °F - 39.2 °F 54% 30.25 in 1.8 mi East 8.1 mph - N/A   Haze
10:50 AM 55.4 °F - 39.2 °F 54% 30.25 in 3.0 mi East 8.1 mph - N/A   Haze
10:53 AM 57.0 °F - 39.0 °F 51% 30.26 in 4.0 mi East 8.1 mph - N/A   Haze
11:53 AM 63.0 °F - 41.0 °F 45% 30.26 in 10.0 mi NE 8.1 mph - N/A   Clear
12:53 PM 68.0 °F - 30.0 °F 24% 30.25 in 10.0 mi NNE 11.5 mph 19.6 mph N/A   Clear
1:53 PM 71.1 °F - 30.9 °F 23% 30.23 in 10.0 mi NE 8.1 mph 16.1 mph N/A   Clear
2:53 PM 72.0 °F - 28.9 °F 20% 30.22 in 10.0 mi North 8.1 mph - N/A   Clear
3:53 PM 72.0 °F - 26.1 °F 18% 30.22 in 10.0 mi NE 8.1 mph 18.4 mph N/A   Clear
4:53 PM 72.0 °F - 26.1 °F 18% 30.22 in 10.0 mi NE 11.5 mph - N/A   Clear
5:53 PM 66.9 °F - 33.1 °F 28% 30.22 in 10.0 mi NW 5.8 mph - N/A   Clear
6:53 PM 62.1 °F - 32.0 °F 32% 30.21 in 10.0 mi NNW 6.9 mph - N/A   Clear
7:53 PM 61.0 °F - 30.9 °F 32% 30.22 in 10.0 mi NNE 4.6 mph - N/A   Mostly Cloudy
8:53 PM 57.0 °F - 34.0 °F 42% 30.22 in 10.0 mi Calm Calm - N/A   Clear
9:53 PM 53.1 °F - 37.9 °F 57% 30.24 in 10.0 mi NE 3.5 mph - N/A   Clear
10:53 PM 50.0 °F - 37.0 °F 61% 30.24 in 10.0 mi East 4.6 mph - N/A   Clear
11:53 PM 52.0 °F - 34.0 °F 50% 30.25 in 10.0 mi NE 4.6 mph - N/A   Clear